EW4819 Weather Reports


time (UTC)temp
C
wind
direction
speed
KPH
gust
KPH
rain 1hr
cm
rain 24hr
cm
rain mn
cm
humidity
%
barometer
mb
20260507224025 8 0 0.0 0.0 0.00 0.00 0.00 85 1014.5
20260507223503 8 0 0.0 0.0 0.00 0.00 0.00 86 1014.5
20260507223003 8 0 0.0 0.0 0.00 0.00 0.00 85 1014.5
20260507222503 8 0 0.0 0.0 0.00 0.00 0.00 85 1014.6
20260507222003 8 0 0.0 0.0 0.00 0.00 0.00 85 1014.6
20260507221503 9 0 0.0 1.6 0.00 0.00 0.00 86 1014.6
20260507221003 9 0 0.0 1.6 0.00 0.00 0.00 86 1014.5
20260507220503 9 86 0.0 1.6 0.00 0.00 0.00 86 1014.6
20260507220003 9 86 0.0 1.6 0.00 0.00 0.00 85 1014.6
20260507215503 8 0 0.0 0.0 0.00 0.00 0.00 85 1014.6
20260507215003 8 0 0.0 1.6 0.00 0.00 0.00 84 1014.6
20260507214503 9 0 0.0 1.6 0.00 0.00 0.00 84 1014.6
20260507214024 9 0 0.0 0.0 0.00 0.00 0.00 84 1014.7
20260507213503 9 86 0.0 1.6 0.00 0.00 0.00 83 1014.6
20260507213003 9 90 0.0 3.2 0.00 0.00 0.00 83 1014.5
20260507212503 9 105 0.0 3.2 0.00 0.00 0.00 83 1014.6
20260507212003 9 137 0.0 3.2 0.00 0.00 0.00 83 1014.5
20260507211503 9 139 1.6 4.8 0.00 0.00 0.00 82 1014.5
20260507211003 9 121 1.6 9.7 0.00 0.00 0.00 82 1014.5
20260507210503 9 111 1.6 9.7 0.00 0.00 0.00 82 1014.5
20260507210024 9 118 0.0 3.2 0.00 0.00 0.00 81 1014.4
20260507205503 9 123 0.0 3.2 0.00 0.00 0.00 81 1014.4
20260507205003 10 137 0.0 3.2 0.00 0.00 0.00 81 1014.4
20260507204524 10 156 0.0 3.2 0.00 0.00 0.00 80 1014.4
20260507204003 10 147 1.6 4.8 0.00 0.00 0.00 80 1014.4
20260507203503 9 135 1.6 4.8 0.00 0.00 0.00 79 1014.3
20260507203003 9 123 1.6 4.8 0.00 0.00 0.00 78 1014.2
20260507202503 9 95 1.6 4.8 0.00 0.00 0.00 77 1014.1
20260507202003 9 85 1.6 4.8 0.00 0.00 0.00 76 1014.1
20260507201503 9 89 1.6 4.8 0.00 0.00 0.00 74 1014.2
20260507201003 9 102 0.0 3.2 0.00 0.00 0.00 73 1014.2
20260507200504 9 102 0.0 3.2 0.00 0.00 0.00 71 1014.3
20260507200025 10 102 0.0 1.6 0.00 0.00 0.00 70 1014.2
20260507195504 10 102 0.0 3.2 0.00 0.00 0.00 68 1014.1
20260507195005 10 107 0.0 3.2 0.00 0.00 0.00 67 1014.0
20260507194505 10 114 1.6 3.2 0.00 0.00 0.00 66 1014.0
20260507194005 10 117 1.6 3.2 0.00 0.00 0.00 65 1014.0
20260507193504 11 120 1.6 3.2 0.00 0.00 0.00 65 1014.0
20260507193003 11 118 1.6 4.8 0.00 0.00 0.00 64 1013.9
20260507192503 11 116 1.6 4.8 0.00 0.00 0.00 63 1013.9
20260507192001 11 115 1.6 4.8 0.00 0.00 0.00 62 1013.8
20260507191501 11 119 1.6 6.4 0.00 0.00 0.00 61 1013.7
20260507191001 12 131 1.6 6.4 0.00 0.00 0.00 60 1013.7
20260507190501 12 133 1.6 11.3 0.00 0.00 0.00 58 1013.6
20260507190002 12 120 3.2 11.3 0.00 0.00 0.00 57 1013.6
20260507185501 12 117 3.2 9.7 0.00 0.00 0.00 56 1013.5
20260507185003 13 121 4.8 11.3 0.00 0.00 0.00 55 1013.5
20260507184501 13 128 3.2 16.1 0.00 0.00 0.00 56 1013.6
20260507184001 13 124 4.8 16.1 0.00 0.00 0.00 55 1013.5
20260507183522 13 113 4.8 12.9 0.00 0.00 0.00 54 1013.5
20260507183001 13 112 4.8 12.9 0.00 0.00 0.00 55 1013.4
20260507182501 14 116 3.2 9.7 0.00 0.00 0.00 56 1013.4
20260507182001 14 108 3.2 11.3 0.00 0.00 0.00 57 1013.4
20260507181501 14 108 3.2 11.3 0.00 0.00 0.00 56 1013.4
20260507181001 14 110 4.8 11.3 0.00 0.00 0.00 58 1013.4
20260507180501 14 116 4.8 11.3 0.00 0.00 0.00 59 1013.4
20260507180022 15 123 4.8 11.3 0.00 0.00 0.00 60 1013.4
20260507175501 15 126 3.2 11.3 0.00 0.00 0.00 59 1013.4
20260507175002 15 111 3.2 11.3 0.00 0.00 0.00 59 1013.4
20260507174522 15 97 3.2 12.9 0.00 0.00 0.00 57 1013.3
20260507174001 15 100 4.8 12.9 0.00 0.00 0.00 57 1013.3
20260507173522 16 106 4.8 11.3 0.00 0.00 0.00 58 1013.3
20260507173022 16 109 4.8 11.3 0.00 0.00 0.00 56 1013.3
20260507172501 16 101 3.2 11.3 0.00 0.00 0.00 59 1013.2
20260507172001 16 105 4.8 12.9 0.00 0.00 0.00 57 1013.2
20260507171503 16 134 4.8 12.9 0.00 0.00 0.00 60 1013.3
20260507171022 16 154 6.4 11.3 0.00 0.00 0.00 58 1013.3
20260507170501 16 152 6.4 14.5 0.00 0.00 0.00 58 1013.3
20260507170002 16 139 4.8 14.5 0.00 0.00 0.00 58 1013.3
20260507165502 16 134 3.2 12.9 0.00 0.00 0.00 58 1013.4
20260507165002 16 132 4.8 12.9 0.00 0.00 0.00 58 1013.3
20260507164502 15 117 4.8 11.3 0.00 0.00 0.00 63 1013.3
20260507164002 15 103 4.8 11.3 0.00 0.00 0.00 63 1013.3
20260507163524 15 119 4.8 11.3 0.00 0.00 0.00 65 1013.4
20260507163002 15 141 4.8 11.3 0.00 0.00 0.00 64 1013.5
20260507162501 15 134 3.2 11.3 0.00 0.00 0.00 64 1013.5
20260507162024 15 133 4.8 12.9 0.00 0.00 0.00 64 1013.5
20260507161501 15 133 4.8 16.1 0.00 0.00 0.00 63 1013.5
20260507161001 15 138 6.4 16.1 0.00 0.00 0.00 63 1013.5
20260507160501 15 137 4.8 12.9 0.00 0.00 0.00 63 1013.5
20260507160001 15 126 4.8 12.9 0.00 0.00 0.00 62 1013.5
20260507155501 15 105 4.8 11.3 0.00 0.00 0.00 62 1013.5
20260507155001 15 107 4.8 12.9 0.00 0.00 0.00 61 1013.5
20260507154501 16 124 4.8 12.9 0.00 0.00 0.00 59 1013.5
20260507154003 16 105 3.2 12.9 0.00 0.00 0.00 60 1013.6
20260507153501 16 49 3.2 11.3 0.00 0.00 0.00 62 1013.5
20260507153001 16 53 4.8 11.3 0.00 0.00 0.00 61 1013.6
20260507152501 15 78 3.2 6.4 0.00 0.00 0.00 63 1013.6
20260507152001 15 108 3.2 6.4 0.00 0.00 0.00 64 1013.7
20260507151501 14 124 1.6 4.8 0.00 0.00 0.00 66 1013.7
20260507151022 14 130 1.6 4.8 0.00 0.00 0.00 66 1013.7
20260507150501 13 148 1.6 4.8 0.00 0.00 0.00 68 1013.7
20260507150022 13 150 0.0 4.8 0.00 0.00 0.00 68 1013.8
20260507145501 13 131 0.0 3.2 0.00 0.00 0.00 69 1013.7
20260507145001 13 124 1.6 3.2 0.00 0.00 0.00 68 1013.7
20260507144501 13 124 1.6 4.8 0.00 0.00 0.00 68 1013.8
20260507144022 13 124 1.6 4.8 0.00 0.00 0.00 68 1013.8
20260507143522 13 124 1.6 3.2 0.00 0.00 0.00 70 1013.9
20260507143022 13 124 0.0 3.2 0.00 0.00 0.00 70 1013.9
20260507142501 13 124 1.6 3.2 0.00 0.00 0.00 70 1014.0
20260507142002 13 124 1.6 3.2 0.00 0.00 0.00 70 1014.1
20260507141501 13 124 0.0 3.2 0.00 0.00 0.00 70 1014.0
20260507141001 13 141 1.6 6.4 0.00 0.00 0.00 70 1014.0
20260507140501 13 161 1.6 6.4 0.00 0.00 0.00 70 1014.1
20260507140001 13 171 1.6 6.4 0.00 0.00 0.00 70 1014.1
20260507135502 13 171 0.0 3.2 0.00 0.00 0.00 70 1014.1
20260507135002 13 172 0.0 3.2 0.00 0.00 0.00 70 1014.1
20260507134502 13 172 0.0 4.8 0.00 0.00 0.00 70 1014.2
20260507134023 13 171 1.6 4.8 0.00 0.00 0.00 70 1014.2
20260507133502 13 174 1.6 4.8 0.00 0.00 0.00 70 1014.1
20260507133004 13 194 1.6 8.0 0.00 0.00 0.00 69 1014.1
20260507132502 13 196 3.2 8.0 0.00 0.00 0.00 68 1014.1
20260507132002 13 192 1.6 8.0 0.00 0.00 0.00 68 1014.2
20260507131502 13 186 1.6 4.8 0.00 0.00 0.00 68 1014.2
20260507131002 14 187 3.2 9.7 0.00 0.00 0.00 67 1014.2
20260507130502 14 193 3.2 9.7 0.00 0.00 0.00 66 1014.2
20260507130002 14 179 4.8 9.7 0.00 0.00 0.00 65 1014.2
20260507125502 14 166 3.2 9.7 0.00 0.00 0.00 63 1014.2
20260507125001 14 172 1.6 6.4 0.00 0.00 0.00 60 1014.2
20260507124502 14 188 3.2 8.0 0.00 0.00 0.00 60 1014.2
20260507124002 14 181 4.8 8.0 0.00 0.00 0.00 60 1014.1
20260507123523 14 169 4.8 12.9 0.00 0.00 0.00 59 1014.2
20260507123002 15 171 6.4 12.9 0.00 0.00 0.00 59 1014.2
20260507122523 15 165 4.8 12.9 0.00 0.00 0.00 59 1014.2
20260507122001 15 129 4.8 11.3 0.00 0.00 0.00 58 1014.3
20260507121502 15 141 4.8 9.7 0.00 0.00 0.00 56 1014.3
20260507121002 15 155 4.8 12.9 0.00 0.00 0.00 60 1014.2
20260507120501 15 150 6.4 12.9 0.00 0.00 0.00 58 1014.2
20260507120023 16 159 6.4 14.5 0.00 0.00 0.00 59 1014.2
20260507115502 16 160 6.4 14.5 0.00 0.00 0.00 57 1014.2
20260507115002 16 150 4.8 12.9 0.00 0.00 0.00 57 1014.2
20260507114503 17 148 6.4 14.5 0.00 0.00 0.00 59 1014.2
20260507114023 17 158 6.4 14.5 0.00 0.00 0.00 62 1014.1
20260507113502 16 154 6.4 12.9 0.00 0.00 0.00 59 1014.1
20260507113002 16 129 4.8 11.3 0.00 0.00 0.00 63 1014.2
20260507112502 15 131 6.4 17.7 0.00 0.00 0.00 65 1014.2
20260507112023 15 130 4.8 17.7 0.00 0.00 0.00 64 1014.3
20260507111503 15 135 3.2 9.7 0.00 0.00 0.00 62 1014.3
20260507111002 15 132 4.8 12.9 0.00 0.00 0.00 64 1014.3
20260507110523 14 123 4.8 12.9 0.00 0.00 0.00 63 1014.4
20260507110002 14 130 3.2 11.3 0.00 0.00 0.00 65 1014.4
20260507105502 14 131 3.2 9.7 0.00 0.00 0.00 66 1014.4
20260507105002 14 147 3.2 9.7 0.00 0.00 0.00 66 1014.4
20260507104502 14 158 4.8 14.5 0.00 0.00 0.00 65 1014.4
20260507104003 14 161 6.4 14.5 0.00 0.00 0.00 65 1014.4
20260507103502 14 149 6.4 11.3 0.00 0.00 0.00 65 1014.4
20260507103024 14 138 4.8 11.3 0.00 0.00 0.00 63 1014.4
20260507102502 14 162 4.8 12.9 0.00 0.00 0.00 64 1014.4
20260507102002 14 163 4.8 12.9 0.00 0.00 0.00 64 1014.4
20260507101502 15 144 1.6 8.0 0.00 0.00 0.00 64 1014.5
20260507101002 15 155 3.2 12.9 0.00 0.00 0.00 64 1014.5
20260507100502 15 143 4.8 12.9 0.00 0.00 0.00 65 1014.4
20260507100002 15 135 4.8 11.3 0.00 0.00 0.00 65 1014.4
20260507095502 15 150 4.8 12.9 0.00 0.00 0.00 66 1014.4
20260507095002 15 146 4.8 12.9 0.00 0.00 0.00 64 1014.5
20260507094502 15 129 4.8 12.9 0.00 0.00 0.00 64 1014.4
20260507094023 15 133 4.8 12.9 0.00 0.00 0.00 67 1014.4
20260507093502 14 110 1.6 6.4 0.00 0.00 0.00 68 1014.4
20260507093002 14 114 3.2 6.4 0.00 0.00 0.00 66 1014.4
20260507092502 15 150 3.2 8.0 0.00 0.00 0.00 66 1014.4
20260507092002 15 149 4.8 12.9 0.00 0.00 0.00 66 1014.4
20260507091502 14 142 4.8 12.9 0.00 0.00 0.00 67 1014.4
20260507091023 14 120 3.2 11.3 0.00 0.00 0.00 67 1014.4
20260507090523 14 146 4.8 12.9 0.00 0.00 0.00 66 1014.4
20260507090002 14 154 4.8 12.9 0.00 0.00 0.00 68 1014.5
20260507085523 14 105 3.2 9.7 0.00 0.00 0.00 66 1014.5
20260507085002 15 133 3.2 9.7 0.00 0.00 0.00 67 1014.6
20260507084502 14 160 4.8 9.7 0.00 0.00 0.00 69 1014.6
20260507084002 14 176 4.8 12.9 0.00 0.00 0.00 69 1014.5
20260507083523 14 179 4.8 12.9 0.00 0.00 0.00 70 1014.5
20260507083002 14 188 3.2 12.9 0.00 0.00 0.00 71 1014.4
20260507082502 14 189 4.8 16.1 0.00 0.00 0.00 72 1014.5
20260507082002 13 195 4.8 16.1 0.00 0.00 0.00 73 1014.5
20260507081502 13 208 3.2 6.4 0.00 0.00 0.00 73 1014.4
20260507081002 13 194 3.2 6.4 0.00 0.00 0.00 73 1014.5
20260507080523 13 201 3.2 9.7 0.00 0.00 0.00 74 1014.5
20260507080002 13 186 3.2 9.7 0.00 0.00 0.00 73 1014.4
20260507075502 13 166 3.2 9.7 0.00 0.00 0.00 73 1014.4
20260507075002 13 136 4.8 11.3 0.00 0.00 0.00 73 1014.4
20260507074504 13 115 4.8 11.3 0.00 0.00 0.00 73 1014.4
20260507074024 13 111 4.8 11.3 0.00 0.00 0.00 74 1014.4
20260507073524 13 127 4.8 12.9 0.00 0.00 0.00 75 1014.3
20260507073003 12 139 4.8 12.9 0.00 0.00 0.00 77 1014.4
20260507072503 12 147 3.2 11.3 0.00 0.00 0.00 80 1014.3
20260507072024 11 125 3.2 12.9 0.00 0.00 0.00 82 1014.2
20260507071505 11 85 3.2 12.9 0.00 0.00 0.00 83 1014.2
20260507071003 10 120 3.2 8.0 0.00 0.00 0.00 85 1014.2
20260507070503 10 192 3.2 8.0 0.00 0.00 0.00 87 1014.3
20260507070003 10 172 3.2 8.0 0.00 0.00 0.00 88 1014.3
20260507065502 9 63 3.2 8.0 0.00 0.00 0.00 89 1014.2
20260507065002 9 54 3.2 8.0 0.00 0.00 0.00 90 1014.1
20260507064523 8 58 1.6 6.4 0.00 0.00 0.00 91 1014.1
20260507064002 8 69 1.6 6.4 0.00 0.00 0.00 91 1014.1
20260507063502 8 76 1.6 6.4 0.00 0.00 0.00 91 1014.1
20260507063002 7 69 1.6 6.4 0.00 0.00 0.00 91 1014.2
20260507062504 7 62 3.2 6.4 0.00 0.00 0.00 91 1014.2
20260507062002 7 61 1.6 6.4 0.00 0.00 0.00 92 1014.2
20260507061502 7 54 1.6 6.4 0.00 0.00 0.00 92 1014.2
20260507061002 7 44 1.6 6.4 0.00 0.00 0.00 92 1014.2
20260507060502 6 359 0.0 3.2 0.00 0.00 0.00 92 1014.2
20260507060002 6 6 0.0 1.6 0.00 0.00 0.00 92 1014.1
20260507055502 6 0 0.0 0.0 0.00 0.00 0.00 91 1014.1
20260507055002 5 0 0.0 0.0 0.00 0.00 0.00 91 1014.1
20260507054502 5 0 0.0 0.0 0.00 0.00 0.00 91 1014.1
20260507054002 5 0 0.0 0.0 0.00 0.00 0.00 91 1014.1
20260507053502 5 0 0.0 0.0 0.00 0.00 0.00 91 1014.1
20260507053003 4 0 0.0 0.0 0.00 0.00 0.00 91 1014.1
20260507052502 4 0 0.0 0.0 0.00 0.00 0.00 91 1014.1
20260507052023 4 5 0.0 1.6 0.00 0.00 0.00 91 1014.0
20260507051523 4 5 0.0 1.6 0.00 0.00 0.00 91 1014.0
20260507051023 3 0 0.0 1.6 0.00 0.00 0.00 91 1014.0
20260507050502 3 0 0.0 0.0 0.00 0.00 0.00 91 1014.0
20260507050002 3 0 0.0 0.0 0.00 0.00 0.00 90 1014.0
20260507045502 3 0 0.0 1.6 0.00 0.00 0.00 90 1013.9
20260507045002 3 0 0.0 1.6 0.00 0.00 0.00 90 1013.9
20260507044502 3 0 0.0 0.0 0.00 0.00 0.00 90 1013.9
20260507044002 3 0 0.0 0.0 0.00 0.00 0.00 90 1013.9
20260507043502 3 5 0.0 1.6 0.00 0.00 0.00 90 1013.9
20260507043003 3 5 0.0 1.6 0.00 0.00 0.00 90 1013.9
20260507042504 3 0 0.0 1.6 0.00 0.00 0.00 90 1013.8
20260507042004 3 0 0.0 0.0 0.00 0.00 0.00 90 1013.9
20260507041524 3 0 0.0 0.0 0.00 0.00 0.00 90 1013.9
20260507041003 3 0 0.0 0.0 0.00 0.00 0.00 90 1013.9
20260507040503 2 0 0.0 0.0 0.00 0.00 0.00 90 1013.9
20260507040003 2 0 0.0 0.0 0.00 0.00 0.00 90 1013.9
20260507035502 2 0 0.0 0.0 0.00 0.00 0.00 90 1013.9
20260507035004 2 0 0.0 0.0 0.00 0.00 0.00 90 1013.9
20260507034502 2 0 0.0 0.0 0.00 0.00 0.00 90 1013.9
20260507034002 2 0 0.0 0.0 0.00 0.00 0.00 89 1013.9
20260507033502 2 0 0.0 0.0 0.00 0.00 0.00 89 1013.9
20260507033002 2 0 0.0 0.0 0.00 0.00 0.00 90 1013.9
20260507032502 2 0 0.0 0.0 0.00 0.00 0.00 90 1013.9
20260507032002 2 0 0.0 0.0 0.00 0.00 0.00 89 1013.9
20260507031502 2 0 0.0 0.0 0.00 0.00 0.00 89 1013.9
20260507031002 2 0 0.0 0.0 0.00 0.00 0.00 89 1013.9
20260507030502 2 0 0.0 0.0 0.00 0.00 0.00 89 1013.8
20260507030024 2 0 0.0 0.0 0.00 0.00 0.00 89 1013.8
20260507025502 2 5 0.0 1.6 0.00 0.00 0.00 89 1013.8
20260507025002 2 5 0.0 1.6 0.00 0.00 0.00 88 1013.8
20260507024502 2 0 0.0 0.0 0.00 0.00 0.00 88 1013.7
20260507024002 2 0 0.0 0.0 0.00 0.00 0.00 88 1013.7
20260507023502 2 0 0.0 0.0 0.00 0.00 0.00 88 1013.7
20260507023002 2 0 0.0 0.0 0.00 0.00 0.00 88 1013.7
20260507022502 2 0 0.0 0.0 0.00 0.00 0.00 88 1013.7
20260507022002 2 0 0.0 0.0 0.00 0.00 0.00 88 1013.7
20260507021502 2 0 0.0 0.0 0.00 0.00 0.00 88 1013.7
20260507021002 2 0 0.0 0.0 0.00 0.00 0.00 88 1013.7
20260507020502 2 0 0.0 0.0 0.00 0.00 0.00 88 1013.7
20260507020003 2 0 0.0 0.0 0.00 0.00 0.00 88 1013.7
20260507015523 2 0 0.0 0.0 0.00 0.00 0.00 88 1013.7
20260507015004 2 0 0.0 0.0 0.00 0.00 0.00 88 1013.6
20260507014523 2 0 0.0 0.0 0.00 0.00 0.00 88 1013.6
20260507014003 2 0 0.0 0.0 0.00 0.00 0.00 87 1013.5
20260507013502 3 0 0.0 0.0 0.00 0.00 0.00 87 1013.5
20260507013023 3 0 0.0 0.0 0.00 0.00 0.00 87 1013.5
20260507012502 3 0 0.0 0.0 0.00 0.00 0.00 87 1013.6
20260507012002 3 0 0.0 0.0 0.00 0.00 0.00 87 1013.6
20260507011504 3 0 0.0 0.0 0.00 0.00 0.00 87 1013.6
20260507011003 3 0 0.0 0.0 0.00 0.00 0.00 87 1013.6
20260507010504 3 0 0.0 0.0 0.00 0.00 0.00 86 1013.6
20260507010004 3 0 0.0 0.0 0.00 0.00 0.00 86 1013.6
20260507005504 3 0 0.0 0.0 0.00 0.00 0.00 86 1013.6
20260507005004 3 0 0.0 0.0 0.00 0.00 0.00 86 1013.6
20260507004503 3 0 0.0 0.0 0.00 0.00 0.00 86 1013.6
20260507004023 3 0 0.0 0.0 0.00 0.00 0.00 86 1013.6
20260507003503 3 0 0.0 0.0 0.00 0.00 0.00 86 1013.7
20260507003004 4 0 0.0 0.0 0.00 0.00 0.00 86 1013.6
20260507002503 4 0 0.0 0.0 0.00 0.00 0.00 85 1013.7
20260507002003 4 0 0.0 0.0 0.00 0.00 0.00 85 1013.6
20260507001524 4 0 0.0 0.0 0.00 0.00 0.00 85 1013.6
20260507001003 4 0 0.0 0.0 0.00 0.00 0.00 85 1013.6
20260507000504 4 0 0.0 0.0 0.00 0.00 0.00 85 1013.6
20260507000025 5 0 0.0 0.0 0.00 0.00 0.00 84 1013.6
20260506235503 5 0 0.0 0.0 0.00 0.00 0.00 84 1013.6
20260506235003 5 0 0.0 0.0 0.00 0.00 0.00 83 1013.6
20260506234503 5 0 0.0 0.0 0.00 0.00 0.00 83 1013.6
20260506234003 5 0 0.0 0.0 0.00 0.00 0.00 82 1013.6
20260506233503 5 0 0.0 0.0 0.00 0.00 0.00 82 1013.5
20260506233003 5 0 0.0 0.0 0.00 0.00 0.00 81 1013.5
20260506232503 5 0 0.0 0.0 0.00 0.00 0.00 81 1013.5
20260506232003 5 0 0.0 0.0 0.00 0.00 0.00 81 1013.5
20260506231503 6 0 0.0 0.0 0.00 0.00 0.00 80 1013.5
20260506231003 6 0 0.0 0.0 0.00 0.00 0.00 80 1013.5
20260506230503 6 0 0.0 0.0 0.00 0.00 0.00 79 1013.5
20260506230003 6 0 0.0 0.0 0.00 0.00 0.00 78 1013.5
20260506225504 6 0 0.0 0.0 0.00 0.00 0.00 77 1013.5
20260506225024 6 5 0.0 1.6 0.00 0.00 0.00 76 1013.5
20260506224525 7 5 0.0 1.6 0.00 0.00 0.00 75 1013.5